Location: Marion Hill
(40.7303°N, 80.2959°W)
Time: 14:56:05
(UTC+00:00)

Daily predictions for brighter satellites

Satellite Brightness Start Highest point End
(mag) Time Altitude Azimuth Time Altitude Azimuth Time Altitude Azimuth
Meteor 2-14 Rocket 4.5 22:35:26 10° N 22:41:36 77° E 22:47:41 10° SSE
Cosmos 2297 Rocket 2.6 22:39:12 10° N 22:44:34 41° ENE 22:49:52 10° SE
USA 306 4.4 22:45:44 10° NNW 22:49:09 22° NNE 22:52:32 10° ENE
SKYMED 2 4.5 22:46:09 10° NE 22:49:56 29° E 22:53:42 10° SSE
Cosmos 292 Rocket 4.2 22:46:46 10° SSW 22:51:32 69° WNW 22:56:22 10° NNE
H-2A R/B 4.1 22:48:26 10° S 22:52:40 43° W 22:57:00 10° NNW
Radarsat Rocket 4.5 22:49:38 10° S 22:55:41 67° WSW 23:01:29 10° NNW
Timation 2 Rocket 4.2 22:49:23 10° NNW 22:56:05 81° ENE 23:02:56 10° SSE
Meteor 2-10 Rocket 4.3 22:52:42 10° SSE 22:57:13 29° E 23:01:37 10° NNE
Okean-O 3.9 22:54:04 10° ESE 22:57:19 21° ENE 23:00:36 10° NNE
SMAP 3.4 22:56:42 10° S 23:01:20 73° WSW 23:06:01 10° NNW
Cosmos 1553 Rocket 4.2 22:55:52 10° SSE 23:01:54 48° E 23:07:53 10° NNE
Cosmos 1408 4.0 23:00:21 10° NNE 23:02:58 18° ENE 23:05:34 10° ESE
Cosmos 1689 Rocket 3.0 23:00:36 10° NE 23:03:07 27° E 23:05:38 10° SSE
FengYun 1-2 T 4.2 22:57:51 10° SSE 23:03:28 73° ENE 23:09:06 10° N
H-2A R/B 3.5 23:01:39 10° ESE 23:05:08 18° ENE 23:08:36 10° NNE
Cosmos 1953 Rocket 3.7 23:05:17 10° N 23:09:43 81° W 23:14:11 10° S
Cosmos 44 Rocket 4.1 23:08:18 10° S 23:12:25 30° ESE 23:16:15 12° NE
Cosmos 2058 Rocket 3.1 23:09:24 10° S 23:13:52 86° E 23:18:24 10° N
Lacrosse 5 4.0 23:12:19 10° NNW 23:14:24 12° N 23:16:29 10° NNE
Cosmos 2219 3.2 23:12:49 10° NNW 23:18:37 81° ENE 23:24:22 10° SSE
Cosmos 1892 2.9 23:18:01 10° N 23:21:49 49° E 23:25:34 10° SSE
Cosmos 1939 Rocket 2.8 23:19:09 10° SSE 23:23:02 60° ENE 23:26:55 10° N
ARGOS 4.5 23:21:56 16° E 23:23:35 19° ENE 23:27:15 10° NNE
SL-08 R/B 4.4 23:18:26 10° N 23:24:34 66° E 23:30:36 10° SSE
Cosmos 1076 Rocket 4.3 23:21:14 10° NNE 23:24:55 28° ENE 23:28:35 10° SE
Cosmos 1656 3.9 23:19:55 10° SSW 23:25:28 74° WNW 23:31:08 10° NNE
Cosmos 968 Rocket 3.5 23:20:18 10° NNW 23:25:28 60° ENE 23:30:33 10° SSE
Cosmos 2082 4.1 23:20:13 10° N 23:25:37 40° ENE 23:30:59 10° SE
CZ-4B R/B 2.9 23:24:38 10° N 23:27:35 36° WNW 23:30:27 10° SW
SAR-Lupe-4 3.7 23:24:42 10° N 23:28:17 74° WNW 23:31:51 10° SSW
Aureole 3 Rocket 3.5 23:25:39 10° SSW 23:29:34 71° W 23:35:03 10° N
Cosmos 1745 Rocket 4.1 23:25:14 10° N 23:31:25 53° E 23:37:36 10° SSE
NOSS 3-3 (A) 3.8 23:25:49 10° SSW 23:31:30 77° ESE 23:37:54 10° NE
NOSS 3-3 (C) 3.8 23:25:55 10° SSW 23:31:37 76° ESE 23:38:01 10° NE
Cosmos 1400 Rocket 3.8 23:29:10 10° SSW 23:33:09 49° WNW 23:37:08 10° N
USA 307 3.6 23:29:22 10° NW 23:33:20 36° NNE 23:35:04 25° ENE
Cosmos 1825 2.9 23:33:22 10° NNE 23:36:43 29° ENE 23:37:06 29° E
ERS-2 4.2 23:33:47 10° N 23:36:58 29° WNW 23:40:09 10° SW
IRS-1C Rocket 4.0 23:32:39 10° SSE 23:37:55 86° ENE 23:43:14 10° NNW
COSMO-SKYMED 1 2.6 23:33:44 10° N 23:38:06 82° WNW 23:42:26 10° SSW
Cosmos 2369 3.7 23:32:39 10° S 23:38:17 64° ESE 23:43:56 10° NNE
USA 308 3.5 23:34:19 10° NW 23:38:21 38° NNE 23:39:51 28° ENE
GPS 2-04 Rocket1 3.9 23:35:58 10° SW 23:39:33 31° SSE 23:41:13 23° SE
Helios 1A Rocket 2.8 23:37:37 10° SSE 23:41:41 65° ENE 23:45:45 10° N
OAO 2 Rocket 4.0 23:39:40 10° WSW 23:44:25 44° S 23:46:58 24° ESE
CSL-04 Rocket 4.2 23:40:01 10° SE 23:45:04 38° ENE 23:50:06 10° N
CZ-4 R/B 4.4 23:41:43 10° SSE 23:45:53 86° ENE 23:50:03 10° NNW
CZ-2D R/B 3.1 23:42:16 10° SSE 23:46:04 83° ENE 23:49:53 10° N
ATLAS 2AS CENTAUR R/B 3.8 23:40:11 10° NNW 23:46:19 26° NE 23:48:38 22° ENE
Cosmos 1340 3.8 23:44:02 10° NNW 23:47:39 45° W 23:51:15 10° SSW
YAOGAN 1 2.6 23:43:31 10° SSE 23:47:43 52° ENE 23:51:55 10° N
Cosmos 2227 Rocket 2.4 23:43:34 10° NNW 23:49:13 75° WSW 23:54:52 10° SSE
Cosmos 2263 Rocket 3.6 23:46:36 10° N 23:50:17 20° NE 23:50:17 20° NE
CZ-4 R/B 1.1 23:47:54 10° SSE 23:51:46 69° ENE 23:55:36 10° N
Cosmos 1812 Rocket 3.4 23:49:47 10° S 23:54:08 65° E 23:58:29 10° NNE
